Wind_Speed
16 15 16 17 17 17 17 18 18 18 19 19 20 20 20 21 22 22 23 23 24 24 25 25 25 26 26 27 27 27 27 28 27 27 26 26 25 25 25 26 26 26 26 26
17 18 18 18 18 19 19 19 20 20 20 21 22 22 23 23 24 24 24 24 24 25 26 26 27 28 28 28 29 29 29 29 29 27 27 27 27 27 27 27 27 27 28 28
19 19 20 20 19 19 20 21 21 22 22 22 23 24 24 25 25 25 26 25 26 26 27 28 28 29 29 29 29 30 30 30 29 28 28 28 27 28 28 28 28 28 29 29
20 20 21 20 20 20 20 22 22 23 23 24 25 25 26 26 27 27 27 27 27 28 28 29 29 29 30 30 30 30 30 30 29 28 28 28 28 28 29 29 29 29 29 30
22 22 22 21 21 21 22 22 23 23 24 25 26 27 27 28 28 28 28 29 29 29 29 29 29 29 29 29 29 29 28 28 28 28 28 28 28 28 28 29 29 29 29 29
23 23 23 22 22 23 24 24 24 24 25 26 27 27 27 28 29 30 30 30 30 30 30 29 29 29 29 29 29 28 28 28 28 28 28 28 28 28 28 29 28 28 29 29
23 24 24 23 23 24 25 25 25 26 26 27 27 28 27 28 29 31 31 31 31 30 30 30 29 29 29 29 29 29 29 29 28 28 28 28 28 27 28 28 29 29 29 29
24 24 24 24 25 26 26 26 26 26 27 28 28 28 28 29 30 31 31 31 31 31 30 30 30 30 29 29 30 30 29 29 29 29 29 29 29 28 29 29 29 29 29 29
25 25 26 26 27 27 28 28 28 28 28 28 28 28 28 29 29 30 30 30 30 30 30 30 30 30 29 29 29 29 30 30 29 30 30 30 30 29 29 30 29 29 29 28
26 26 27 27 28 29 29 29 29 29 29 29 29 29 28 29 29 30 30 30 30 30 29 30 30 30 30 29 29 30 30 30 30 30 30 30 30 30 30 30 30 30 29 29
27 28 29 28 28 29 29 29 29 29 30 30 30 30 30 30 30 31 30 30 30 30 30 30 30 29 29 30 30 30 31 31 31 31 30 30 30 30 30 30 30 30 30 30
28 29 30 29 28 28 28 29 29 30 30 31 31 32 31 31 31 31 30 30 30 30 30 29 29 29 30 30 31 31 31 31 31 31 31 31 31 30 31 30 30 30 30 30
29 29 30 30 29 29 29 29 30 30 31 32 32 32 32 31 31 31 31 30 30 30 30 30 30 30 31 31 31 31 31 31 31 31 32 31 31 30 30 30 30 30 31 31
30 30 30 30 30 30 29 30 30 31 31 32 32 32 31 31 31 31 30 30 30 30 30 30 30 31 31 32 32 32 32 32 31 31 31 32 31 31 31 31 31 30 31 31
29 29 29 29 30 30 30 31 31 31 32 32 32 31 31 31 31 31 30 29 30 30 30 30 30 31 31 31 31 32 32 32 32 31 31 31 30 31 31 31 31 31 31 30
29 30 30 30 30 30 31 31 32 32 32 32 31 30 30 30 30 30 30 29 29 29 30 30 31 31 31 30 30 30 31 31 31 31 31 31 30 30 30 30 31 30 30 30
29 30 30 30 30 30 30 30 30 30 31 31 30 30 30 30 30 30 30 30 30 30 31 31 31 30 29 29 29 29 29 29 30 30 30 30 30 30 30 30 30 30 30 30
29 29 29 29 29 29 30 30 30 30 30 30 30 30 30 30 30 30 30 30 31 31 31 30 30 29 29 28 28 27 27 27 28 28 28 28 28 29 30 30 29 29 29 30
27 27 27 28 28 29 28 29 29 29 30 30 30 30 30 31 31 30 31 31 31 31 30 30 29 28 28 28 27 27 27 27 27 27 27 27 28 28 28 28 29 29 29 29
27 27 27 27 28 28 28 28 29 29 29 30 30 30 30 31 31 30 30 30 30 30 29 29 28 28 28 28 28 27 27 28 28 28 27 27 27 27 27 27 27 28 28 28
27 27 26 26 26 27 28 29 29 29 29 30 30 30 30 30 30 29 29 28 29 29 29 28 28 28 28 28 28 28 28 28 27 27 27 27 27 26 26 26 26 27 27 27
27 26 26 27 27 27 28 29 29 29 30 30 30 30 30 29 29 29 29 29 28 29 28 28 28 28 29 29 28 28 28 27 27 27 27 27 26 26 26 25 25 26 26 26
27 28 28 28 28 28 29 29 30 30 30 30 30 30 29 29 29 29 29 29 28 28 28 28 28 28 29 28 28 28 27 27 27 27 27 26 26 26 26 26 26 25 25 25
29 29 29 29 29 29 29 30 30 30 30 30 29 29 29 29 29 29 29 28 28 28 28 28 28 28 28 28 27 27 27 27 26 26 26 26 26 26 26 26 25 25 25 25
29 30 30 30 30 30 30 30 30 30 30 29 29 29 29 29 29 28 28 28 29 29 29 29 28 28 27 27 26 26 26 26 26 26 27 26 26 26 26 26 26 26 25 25
30 30 30 30 30 30 30 30 30 30 30 29 29 29 29 29 29 29 29 29 29 30 30 29 28 27 26 26 26 26 26 25 25 25 25 26 26 26 26 26 26 26 25 25
30 30 29 29 29 29 29 29 29 29 29 29 29 29 29 29 29 29 29 30 30 30 30 29 27 26 26 26 26 26 25 25 25 25 25 25 25 25 25 25 25 25 24 24
Wind_Direction
283 282 279 280 280 282 284 285 288 290 289 291 291 292 293 293 293 294 293 292 289 287 286 285 284 285 283 284 283 284 284 284 283 282 281 278 276 275 275 277 278 278 279 279
283 283 280 279 279 281 283 286 287 288 289 292 292 291 292 292 293 293 294 292 290 289 287 286 285 284 283 283 285 285 284 284 282 281 280 278 276 276 275 276 277 278 278 279
282 285 284 284 286 286 286 287 289 288 288 288 289 290 291 292 292 293 293 291 290 289 289 287 287 285 284 284 284 284 284 282 282 280 279 278 277 276 276 276 276 277 278 279
282 282 282 289 290 289 288 288 288 288 288 287 287 289 290 291 291 293 293 292 291 290 289 288 286 285 284 284 284 283 283 282 280 278 278 277 276 277 276 276 277 277 278 279
281 282 283 287 287 289 290 290 290 288 289 289 289 288 289 290 291 291 292 293 293 292 291 289 287 286 286 284 284 284 283 282 280 278 278 278 278 277 276 276 278 278 278 279
283 283 283 287 288 289 290 291 292 291 291 292 292 290 290 290 289 290 292 293 294 293 291 290 288 287 287 285 284 283 282 282 281 280 279 279 280 278 277 277 278 280 279 278
284 285 285 287 289 290 291 295 296 294 293 293 293 291 291 290 289 290 291 292 293 292 291 290 289 288 287 285 283 281 281 282 281 281 280 280 280 279 278 279 279 280 280 279
284 286 287 288 289 290 292 293 295 295 294 294 293 291 291 292 292 292 292 292 292 292 291 290 289 288 287 285 283 281 281 281 280 280 281 281 281 280 280 279 280 280 280 279
284 287 289 288 288 290 291 292 292 293 294 295 294 292 292 293 294 294 294 294 294 292 291 290 290 289 287 285 283 281 281 281 280 278 279 279 279 279 280 280 281 282 281 279
283 285 286 287 288 289 291 292 292 292 294 296 296 295 294 294 294 296 296 296 295 293 292 291 290 289 287 285 284 283 283 281 281 279 278 278 278 279 279 280 280 282 282 280
283 283 284 285 287 289 291 292 292 292 294 295 295 296 295 296 296 297 297 297 295 294 293 292 291 289 288 287 287 286 284 282 281 280 279 278 277 277 278 279 279 280 280 280
285 285 284 286 288 290 291 292 293 293 293 294 295 295 295 296 296 296 296 296 295 294 293 292 292 291 290 290 289 288 286 283 282 280 279 277 276 276 277 278 279 279 280 280
286 286 285 287 288 289 290 292 293 293 293 293 293 294 294 295 296 296 296 295 294 294 294 294 293 292 292 291 291 289 288 285 283 281 279 277 277 276 277 278 279 279 279 279
285 285 286 287 288 289 290 291 292 293 294 294 293 293 294 294 296 296 295 294 295 294 294 295 295 294 294 293 291 291 289 287 285 282 279 277 277 277 277 279 279 280 280 279
285 286 287 288 289 290 290 291 292 292 293 294 294 294 294 294 295 295 295 295 295 295 295 295 296 296 295 295 293 292 290 289 288 285 282 279 278 277 276 277 278 279 279 278
285 285 286 287 288 290 291 291 291 291 292 293 293 293 294 294 294 295 295 295 296 295 296 296 296 296 296 296 295 293 291 291 289 287 284 281 279 278 277 275 275 276 277 276
286 286 285 287 288 289 290 290 291 292 292 293 294 294 294 295 295 294 295 296 297 296 296 296 296 295 295 295 295 294 292 292 291 289 286 284 282 280 279 276 275 274 275 276
286 287 287 287 288 289 289 290 292 293 293 293 294 294 295 295 295 294 295 296 297 297 296 296 296 295 295 295 296 295 294 294 294 293 290 287 285 283 281 280 278 277 276 275
287 289 288 287 287 288 289 291 292 293 294 294 294 294 294 294 295 295 296 297 297 297 297 297 296 295 295 296 296 296 295 295 294 294 293 292 289 286 283 282 280 278 277 277
287 288 290 290 289 288 290 292 293 294 294 294 294 295 295 295 295 295 295 297 298 297 297 297 297 296 296 296 295 295 295 295 294 294 294 293 291 289 285 283 282 281 279 278
287 288 290 291 291 290 291 293 294 295 296 296 296 296 297 297 296 296 296 297 298 297 297 296 297 297 297 296 295 295 295 295 295 295 294 294 292 290 288 285 284 283 281 279
287 288 289 290 291 292 292 293 295 296 298 298 297 297 297 297 297 297 297 298 298 297 297 296 297 297 297 296 295 295 296 296 296 295 294 293 292 291 290 289 287 285 283 283
287 287 288 290 291 291 292 294 295 297 298 299 299 299 298 298 298 297 296 297 297 297 296 296 296 296 295 295 295 295 295 295 295 295 294 293 292 291 290 290 289 288 287 285
286 287 289 290 291 292 293 294 296 297 297 298 299 299 299 299 299 299 298 297 298 298 297 297 296 294 294 294 295 294 294 294 294 294 294 293 293 293 292 291 290 288 286 285
287 287 289 290 291 293 294 294 295 296 297 298 299 300 300 300 300 301 300 299 298 298 298 297 295 294 294 294 294 294 294 294 294 293 293 293 293 294 293 291 290 289 288 286
288 288 289 290 291 292 293 293 294 296 297 299 299 301 300 300 300 301 302 301 299 298 296 296 295 294 294 294 294 294 294 294 294 295 295 295 295 294 293 292 291 291 290 288
288 288 288 289 290 292 293 294 294 295 297 297 298 299 299 299 299 299 300 299 298 298 297 295 294 294 293 293 293 294 295 294 295 296 296 296 296 295 294 292 292 291 290 288
Height
5792 5791 5791 5790 5790 5789 5788 5788 5787 5787 5786 5786 5784 5782 5781 5779 5777 5776 5774 5772 5770 5768 5767 5765 5764 5762 5760 5758 5757 5755 5753 5752 5751 5749 5748 5747 5746 5746 5745 5744 5744 5743 5742 5741
5788 5787 5786 5785 5785 5785 5784 5783 5782 5782 5782 5780 5778 5776 5775 5773 5772 5770 5768 5766 5764 5762 5760 5758 5756 5755 5753 5751 5749 5748 5746 5744 5743 5741 5740 5739 5738 5738 5737 5736 5736 5735 5734 5733
5783 5782 5781 5781 5781 5780 5779 5778 5777 5776 5777 5774 5772 5770 5769 5767 5765 5763 5761 5759 5757 5755 5752 5750 5749 5747 5745 5743 5741 5739 5738 5736 5735 5733 5732 5731 5730 5729 5729 5728 5727 5727 5726 5725
5777 5777 5776 5779 5776 5774 5773 5772 5771 5770 5769 5768 5766 5764 5762 5760 5758 5756 5754 5752 5749 5747 5745 5743 5740 5738 5736 5734 5732 5731 5729 5727 5726 5725 5724 5723 5722 5721 5720 5719 5719 5718 5717 5716
5771 5770 5770 5772 5770 5768 5767 5766 5765 5764 5762 5761 5759 5757 5755 5753 5751 5748 5746 5744 5741 5739 5736 5734 5731 5729 5727 5725 5724 5722 5720 5719 5717 5716 5716 5715 5714 5713 5712 5711 5710 5709 5708 5707
5766 5764 5764 5766 5764 5762 5762 5760 5759 5757 5755 5753 5751 5750 5749 5746 5743 5740 5738 5735 5733 5730 5728 5725 5723 5721 5719 5717 5715 5713 5711 5710 5709 5708 5707 5706 5705 5704 5703 5702 5701 5700 5699 5698
5759 5758 5758 5759 5758 5756 5756 5755 5752 5750 5747 5745 5744 5742 5741 5738 5735 5732 5730 5727 5724 5722 5719 5717 5714 5712 5710 5708 5706 5704 5703 5701 5700 5699 5698 5698 5697 5696 5695 5694 5693 5692 5691 5689
5753 5752 5754 5752 5750 5750 5749 5746 5744 5742 5740 5738 5736 5734 5732 5729 5727 5724 5721 5718 5716 5713 5711 5708 5706 5703 5701 5699 5697 5695 5694 5693 5692 5691 5690 5689 5688 5687 5686 5685 5684 5683 5682 5680
5748 5749 5747 5745 5743 5742 5740 5739 5737 5735 5733 5731 5728 5726 5724 5721 5719 5716 5713 5710 5708 5705 5702 5700 5697 5695 5693 5690 5688 5687 5685 5684 5683 5682 5681 5680 5679 5678 5677 5676 5675 5674 5673 5672
5741 5740 5738 5737 5735 5734 5732 5731 5729 5727 5725 5723 5721 5718 5716 5713 5711 5708 5705 5702 5699 5696 5694 5692 5689 5686 5684 5682 5680 5678 5676 5675 5673 5672 5671 5670 5669 5669 5668 5667 5666 5665 5664 5663
5733 5732 5730 5729 5728 5727 5725 5723 5721 5719 5717 5715 5712 5710 5708 5705 5702 5700 5697 5694 5691 5688 5686 5683 5680 5678 5675 5673 5671 5669 5667 5666 5664 5663 5662 5661 5660 5659 5658 5657 5656 5655 5654 5654
5725 5724 5722 5722 5720 5719 5717 5715 5713 5711 5709 5707 5704 5702 5699 5696 5694 5691 5688 5685 5682 5679 5677 5674 5672 5669 5666 5664 5662 5660 5658 5656 5655 5653 5652 5651 5650 5649 5648 5648 5647 5646 5645 5644
5717 5715 5714 5713 5712 5711 5709 5707 5705 5703 5701 5698 5696 5693 5691 5688 5685 5682 5679 5676 5674 5671 5668 5665 5663 5660 5658 5655 5653 5650 5648 5646 5645 5643 5642 5641 5640 5639 5639 5638 5637 5636 5635 5634
5709 5707 5706 5705 5704 5702 5701 5699 5697 5695 5692 5690 5687 5685 5682 5679 5677 5673 5670 5668 5665 5662 5660 5657 5654 5651 5649 5646 5644 5641 5639 5637 5634 5633 5632 5631 5630 5629 5629 5628 5627 5626 5625 5624
5700 5699 5698 5697 5695 5694 5692 5690 5688 5686 5683 5681 5679 5676 5673 5671 5668 5665 5662 5659 5656 5654 5651 5648 5645 5642 5639 5637 5634 5632 5629 5627 5624 5623 5621 5621 5620 5619 5618 5618 5617 5616 5615 5614
5692 5691 5690 5688 5687 5685 5683 5681 5679 5677 5675 5672 5670 5667 5665 5662 5659 5656 5654 5651 5648 5645 5642 5639 5636 5633 5630 5628 5625 5622 5620 5617 5615 5613 5612 5611 5610 5609 5608 5607 5607 5606 5605 5605
5683 5682 5681 5680 5678 5676 5674 5672 5670 5668 5666 5663 5661 5658 5656 5653 5651 5648 5645 5642 5639 5636 5633 5630 5627 5624 5621 5619 5616 5614 5611 5609 5607 5604 5603 5601 5600 5599 5598 5597 5596 5596 5595 5594
5674 5673 5672 5671 5669 5667 5666 5664 5661 5659 5657 5655 5652 5650 5647 5645 5642 5639 5636 5633 5630 5627 5624 5621 5618 5615 5613 5610 5608 5605 5603 5600 5598 5596 5594 5592 5591 5589 5588 5587 5586 5586 5585 5584
5666 5664 5663 5662 5660 5659 5657 5655 5653 5651 5648 5646 5643 5641 5638 5635 5633 5630 5627 5624 5621 5618 5615 5612 5609 5607 5604 5602 5599 5597 5595 5593 5590 5588 5586 5584 5582 5580 5579 5578 5577 5576 5575 5574
5658 5656 5655 5653 5652 5650 5649 5646 5644 5642 5640 5637 5634 5632 5629 5626 5623 5621 5618 5615 5612 5609 5607 5604 5601 5599 5596 5594 5591 5589 5587 5585 5582 5580 5578 5576 5574 5572 5570 5569 5567 5566 5565 5565
5650 5649 5647 5645 5644 5642 5640 5638 5636 5634 5631 5628 5626 5623 5620 5617 5614 5612 5609 5607 5604 5601 5598 5595 5593 5591 5588 5586 5583 5581 5579 5577 5574 5572 5570 5568 5566 5564 5562 5560 5559 5558 5556 5555
5642 5641 5639 5637 5636 5634 5632 5630 5627 5625 5622 5620 5617 5614 5611 5609 5606 5603 5601 5598 5595 5592 5590 5587 5585 5582 5580 5577 5575 5573 5571 5568 5566 5564 5562 5560 5558 5556 5554 5552 5551 5549 5548 5547
5634 5632 5631 5629 5627 5626 5624 5621 5619 5616 5614 5611 5608 5606 5603 5600 5597 5595 5592 5590 5587 5584 5581 5579 5576 5574 5571 5569 5567 5564 5562 5560 5558 5556 5554 5552 5550 5548 5546 5545 5543 5541 5540 5538
5625 5624 5622 5621 5619 5617 5615 5613 5610 5608 5605 5603 5600 5597 5595 5592 5589 5586 5583 5581 5578 5575 5573 5570 5568 5565 5563 5560 5558 5556 5554 5552 5550 5548 5546 5544 5542 5540 5538 5536 5534 5533 5531 5530
5617 5615 5614 5612 5610 5608 5606 5604 5602 5600 5597 5595 5592 5589 5586 5584 5581 5579 5575 5573 5570 5567 5565 5562 5559 5556 5554 5552 5550 5548 5546 5544 5542 5540 5538 5536 5534 5532 5530 5528 5526 5524 5523 5521
5608 5606 5605 5603 5601 5600 5598 5596 5593 5591 5589 5586 5584 5581 5578 5576 5573 5570 5567 5565 5562 5559 5556 5553 5551 5548 5546 5544 5542 5540 5538 5536 5534 5532 5530 5527 5525 5523 5521 5519 5518 5516 5514 5513
5599 5597 5596 5594 5593 5591 5589 5587 5585 5583 5580 5578 5576 5573 5570 5567 5565 5562 5559 5556 5553 5551 5548 5545 5542 5540 5538 5536 5534 5532 5530 5528 5526 5524 5522 5519 5517 5515 5513 5511 5509 5508 5506 5505